Wind_Speed
19 19 19 19 19 19 19 19 20 20 20 20 21 21 21 22 22 23 24 25 25 26 27 28 29 29 30 31 32 33 34 34 35 36 36 36 36 36 36 35 34 33 32 32 31 31 31 32 32 33 33 33 32 32 32 32 31 31 30 30 30 30 31 31 32 32 32 32 32
18 19 18 18 19 19 19 20 20 21 21 21 21 22 22 23 24 25 25 26 27 28 28 29 30 31 32 33 34 35 35 36 37 37 37 37 37 37 36 36 35 35 34 33 32 32 31 31 32 33 35 35 35 35 35 34 33 32 32 31 31 31 31 32 33 33 33 32 32
18 18 18 18 19 19 20 21 21 21 22 22 22 23 23 24 25 26 26 27 28 29 30 31 32 33 34 35 36 36 37 37 37 37 37 37 37 37 37 36 36 36 35 34 33 33 32 31 31 32 34 35 36 37 37 37 36 35 35 34 33 32 32 33 33 33 33 34 33
18 18 18 19 20 21 21 22 22 22 22 22 23 24 24 25 26 27 28 28 29 30 31 32 33 34 35 36 37 38 38 38 37 37 37 37 37 37 37 37 37 36 36 35 35 34 33 32 31 31 32 33 34 36 37 38 38 38 38 37 36 36 36 35 35 35 35 35 35
17 18 19 20 21 21 22 22 22 22 22 23 23 24 25 26 26 27 28 29 30 31 32 34 35 36 37 38 38 38 38 38 37 37 37 38 38 38 38 38 37 37 37 36 36 35 34 33 33 32 32 32 32 33 35 36 37 39 39 40 40 39 39 39 38 38 38 38 37
18 19 20 20 21 21 21 21 21 22 22 23 24 25 25 26 27 28 29 31 32 33 34 36 37 38 38 39 39 38 38 38 38 38 38 38 38 39 39 39 39 38 38 38 37 37 36 35 34 34 34 33 33 33 33 33 34 36 38 39 40 41 41 41 41 41 41 41 40
18 19 19 19 20 20 21 21 21 22 23 23 24 25 26 27 28 29 31 32 34 35 36 37 38 39 39 39 39 39 39 39 39 39 39 39 40 40 40 40 40 40 40 39 39 38 37 36 36 36 35 35 35 35 34 33 33 34 35 36 38 39 40 41 42 42 42 43 43
17 17 18 19 19 20 20 21 22 22 23 24 25 26 27 28 30 31 33 35 36 37 38 39 39 39 39 39 39 39 39 39 40 40 40 41 41 41 41 41 41 41 41 40 40 39 39 38 37 37 37 36 37 36 36 35 34 34 35 35 36 36 37 38 40 41 42 43 43
16 17 18 19 19 20 21 21 22 23 24 25 26 27 29 30 32 34 35 37 38 39 40 40 40 40 40 39 39 40 40 40 41 41 41 41 42 42 42 42 42 42 41 41 40 40 40 39 39 39 38 38 37 37 37 36 35 35 36 36 36 36 36 37 37 38 40 41 42
17 18 19 20 20 21 21 22 23 24 25 27 28 30 31 33 35 36 38 39 40 41 41 41 40 40 40 40 40 40 41 41 41 41 41 41 41 42 42 42 41 41 41 40 39 39 39 39 39 40 40 39 39 39 38 37 37 36 37 37 37 37 37 37 37 37 38 39 41
18 19 20 20 21 21 22 23 24 26 27 29 31 33 34 36 37 39 40 41 41 41 41 41 40 40 40 40 40 40 40 40 40 41 41 41 41 41 41 41 41 41 41 41 40 39 38 38 38 39 40 40 40 40 40 39 38 38 38 38 38 38 38 38 38 38 38 39 40
20 20 21 21 22 23 24 25 27 28 30 32 33 35 37 38 39 40 41 41 41 41 41 40 40 40 40 40 40 40 40 40 40 40 41 41 42 42 42 42 42 42 42 42 41 40 40 39 39 39 40 40 39 39 39 39 39 39 38 39 39 39 40 40 40 39 39 39 40
21 21 21 22 23 24 26 28 29 31 33 34 36 37 39 40 40 41 41 41 41 40 40 40 40 40 40 40 40 40 40 40 41 41 42 42 42 43 43 43 43 43 43 42 42 41 41 40 40 40 40 40 39 39 38 38 38 38 38 39 39 40 41 41 42 41 41 40 41
22 22 23 24 25 27 28 30 32 33 35 36 38 39 40 41 41 41 41 40 40 40 40 40 40 39 39 40 40 40 41 41 42 42 43 43 43 43 44 44 44 43 43 43 42 42 41 41 41 40 40 40 40 40 39 38 38 38 38 38 39 40 41 42 42 42 41 41 41
23 23 25 26 27 29 30 32 34 35 37 38 39 40 40 41 41 40 40 40 40 39 39 40 40 40 40 40 40 41 41 42 42 43 44 44 44 44 44 44 44 44 44 43 43 42 42 41 41 40 40 40 40 40 40 39 39 38 38 38 39 40 40 41 41 41 40 40 41
24 25 26 28 29 30 32 33 35 36 38 39 40 40 40 40 40 40 40 39 39 39 39 39 40 40 40 40 41 41 42 43 43 44 44 45 45 45 45 45 45 44 44 43 43 42 42 41 41 40 40 40 40 40 40 40 40 39 39 39 39 40 40 41 40 40 39 40 40
25 26 28 29 30 32 33 35 36 37 38 39 40 40 40 40 40 40 39 39 39 39 39 39 40 40 41 41 42 42 43 44 44 45 45 45 45 45 45 45 44 44 43 43 43 42 42 41 41 40 39 39 39 40 40 40 40 40 40 40 40 40 41 41 41 40 40 40 40
26 28 29 30 32 33 34 36 37 38 39 39 40 40 40 40 40 39 39 39 39 39 40 40 40 41 41 42 43 43 44 44 45 45 45 45 45 45 45 45 44 43 43 42 42 42 41 41 40 40 39 39 39 39 39 40 40 40 40 40 41 41 41 42 41 41 40 40 40
27 28 30 31 33 34 35 36 37 38 39 39 40 40 40 39 39 39 39 39 39 40 40 41 41 42 42 43 43 44 44 45 45 46 46 46 45 45 45 44 44 43 42 42 41 41 41 40 40 39 39 39 38 38 39 39 39 40 41 40 41 41 42 42 42 41 40 39 40
28 29 31 32 33 35 36 37 38 39 39 40 40 40 40 39 39 39 39 40 40 40 41 41 42 43 43 44 44 45 45 45 46 46 46 46 45 45 44 44 43 42 42 41 40 40 40 39 39 39 39 38 38 38 38 39 39 40 40 40 41 41 42 42 41 41 40 40 41
29 30 31 33 34 35 36 37 38 39 39 40 40 40 40 40 40 40 40 40 40 41 41 42 43 44 44 45 45 45 45 45 45 46 46 45 45 45 44 43 42 42 41 40 40 39 39 39 39 39 39 38 38 38 38 38 39 39 40 40 40 41 41 41 41 41 41 41 41
29 31 32 33 35 36 37 38 39 39 39 40 40 40 40 40 40 40 40 41 41 41 42 43 44 44 45 45 45 46 46 46 46 46 45 45 45 44 44 42 42 41 41 40 40 40 40 39 39 39 38 38 38 38 37 37 37 38 38 38 39 39 39 40 40 41 41 41 41
30 32 33 34 35 37 38 38 39 39 40 40 40 40 40 40 41 41 41 41 41 42 43 43 44 45 45 45 45 46 46 46 46 46 46 45 45 44 43 42 41 41 40 40 39 39 38 38 38 37 36 36 36 36 36 35 35 36 36 36 37 37 38 38 38 39 40 40 41
31 32 33 35 36 37 38 39 39 39 40 40 40 40 40 41 41 41 41 42 42 43 43 44 44 45 45 45 45 46 46 46 46 46 46 46 44 43 42 41 41 40 39 38 38 37 36 36 35 35 34 34 34 34 34 34 34 34 35 35 35 36 36 37 37 37 38 39 40
31 33 34 35 36 38 38 39 39 39 40 40 40 40 41 41 41 42 42 42 43 43 44 44 45 45 45 45 46 46 46 46 46 46 46 45 44 42 41 40 39 38 38 37 36 35 34 33 33 33 33 33 33 34 34 34 35 35 35 35 36 36 36 37 37 37 37 38 38
32 33 35 36 37 38 38 39 39 39 40 40 40 40 41 41 42 42 43 43 44 44 44 45 45 45 45 46 46 46 46 46 45 45 44 44 43 42 40 38 37 36 36 35 34 33 32 31 31 31 32 33 34 34 35 36 36 36 36 36 37 37 37 38 38 37 37 37 37
33 34 35 36 37 38 38 39 39 39 39 40 40 41 41 41 42 43 43 44 44 44 45 45 45 45 45 45 45 45 45 44 44 44 43 42 41 40 38 37 35 34 33 33 32 31 31 31 31 32 32 33 35 36 37 37 37 37 37 37 38 38 38 38 39 38 38 37 37
33 35 36 37 37 38 38 39 39 39 40 40 40 41 41 42 42 43 43 44 44 45 45 45 45 45 45 44 44 44 44 44 44 43 42 41 39 38 36 35 34 33 32 32 32 32 32 32 33 33 33 34 36 37 38 38 38 38 38 39 38 38 39 39 39 39 39 39 38
34 35 36 37 37 38 38 39 39 39 40 40 41 41 42 42 43 43 44 44 44 44 44 44 44 44 44 43 43 44 44 44 43 41 40 39 38 36 34 33 33 33 32 32 32 33 33 33 33 33 33 34 35 37 37 38 38 39 39 39 39 39 38 39 39 39 39 39 39
34 35 36 37 37 38 38 39 39 40 40 40 41 41 42 42 43 43 44 44 44 44 43 43 43 43 43 43 44 44 43 42 41 40 38 37 36 35 34 33 33 33 33 32 32 32 32 32 32 33 33 33 34 36 37 38 38 39 39 39 39 39 39 39 39 39 39 39 39
34 35 36 37 37 38 39 39 40 40 40 41 41 42 42 42 43 43 44 44 44 43 43 43 43 43 44 44 43 42 41 41 39 38 36 36 35 34 34 34 34 33 33 32 32 32 32 31 32 32 32 33 34 35 37 38 38 38 39 40 40 40 40 40 40 40 40 40 40
33 34 35 37 38 38 39 39 40 40 41 41 41 42 42 42 43 43 43 43 43 43 43 43 43 43 44 43 42 42 41 40 38 36 35 34 34 34 34 34 34 33 32 31 31 31 31 31 31 31 31 32 34 36 37 38 39 40 40 41 42 42 42 41 42 41 41 41 41
33 35 36 37 38 39 39 40 40 40 41 41 41 42 42 42 43 43 43 43 42 42 42 42 42 43 43 42 42 41 40 39 37 35 34 33 34 34 35 34 34 32 31 30 30 30 30 30 30 31 31 32 33 35 37 38 39 40 41 41 42 42 43 43 43 43 43 42 42
34 35 36 37 38 39 40 40 40 40 41 41 41 42 42 42 43 43 43 42 42 42 42 42 42 42 42 42 41 40 39 38 36 34 34 33 34 34 34 34 33 31 30 29 29 29 30 30 30 30 30 31 33 35 37 38 39 40 41 41 42 43 43 43 44 44 44 44 43
34 36 37 38 38 39 40 40 40 40 41 41 41 42 42 42 42 42 42 42 42 42 42 42 42 42 42 41 40 38 37 36 35 34 34 34 34 34 34 33 31 30 28 28 28 28 29 29 28 28 29 30 32 34 36 37 39 40 41 41 42 42 42 42 43 43 44 44 44
35 36 37 38 39 39 39 40 40 40 41 41 41 42 42 42 42 42 41 41 41 41 41 42 42 41 40 40 38 37 36 35 35 34 34 33 33 33 33 32 31 29 27 27 27 27 27 27 27 27 28 30 32 34 35 37 38 40 40 41 42 42 42 42 43 43 43 43 44
35 36 37 38 39 39 39 39 40 40 41 41 41 42 42 42 42 41 41 40 40 40 41 41 41 40 39 38 37 35 34 34 34 34 34 33 32 32 33 32 31 29 27 26 26 26 27 27 27 27 28 30 32 34 35 37 38 40 41 41 42 42 42 42 43 43 43 43 43
35 36 37 38 39 39 39 39 40 40 40 41 41 41 42 42 41 41 40 39 39 39 40 41 40 39 38 36 35 34 33 33 33 34 33 33 32 31 32 32 31 29 27 26 27 27 27 28 28 29 29 31 32 34 35 37 38 40 41 41 42 43 43 43 43 44 44 44 44
35 36 37 38 38 38 39 39 39 40 40 41 41 41 41 41 40 40 39 39 38 38 39 39 39 37 36 34 34 34 34 33 33 32 32 32 31 31 31 32 31 30 28 27 28 29 29 30 30 31 31 31 33 34 36 37 38 39 40 41 41 42 43 43 43 44 45 45 44
35 36 37 37 37 38 38 39 39 39 40 40 41 41 41 40 40 39 39 39 38 38 37 37 36 35 34 33 33 34 34 33 32 31 31 31 30 30 30 31 31 30 29 29 30 31 31 32 32 33 33 33 33 34 35 36 37 38 38 39 40 41 42 43 43 44 44 45 44
35 36 36 37 37 37 38 38 39 39 40 40 40 40 40 39 39 39 38 38 37 36 36 35 34 33 32 32 33 33 34 33 32 30 30 30 30 30 30 30 31 31 31 32 32 33 33 33 33 34 34 34 34 34 34 34 35 36 37 38 39 39 40 41 42 43 44 44 44
Wind_Direction
287 289 292 295 298 300 302 302 301 299 296 294 292 292 293 294 295 297 298 299 300 301 302 302 303 303 304 304 305 305 305 304 304 304 303 303 302 301 301 300 299 297 295 292 289 286 282 279 278 277 276 275 275 274 273 272 271 271 271 271 271 272 274 275 276 276 277 277 278
287 290 293 296 299 301 301 300 298 296 294 293 292 293 294 296 297 298 299 300 301 302 302 303 303 304 304 305 305 305 305 304 304 304 303 303 303 302 302 301 300 299 298 297 294 291 288 284 281 278 276 275 274 273 273 272 271 271 271 271 270 271 271 272 272 273 274 274 275
288 291 295 298 300 300 299 297 295 293 293 293 294 295 296 297 298 299 300 300 301 301 302 303 304 304 305 305 305 305 305 305 305 305 304 304 304 304 304 303 303 302 301 300 299 297 294 291 287 282 279 276 274 273 272 272 271 271 271 271 271 271 271 271 271 272 272 272 272
290 293 296 299 299 298 296 294 293 292 293 294 295 296 297 298 299 299 300 300 301 302 303 304 305 305 306 306 306 306 306 306 306 306 306 306 306 305 305 305 304 304 303 302 301 300 298 296 293 288 284 280 277 274 273 272 271 270 270 270 270 270 270 271 271 272 272 271 271
292 295 297 297 296 295 293 292 293 293 294 295 296 297 298 298 299 300 301 301 303 304 305 305 306 307 307 307 307 307 307 307 307 307 307 307 307 307 306 306 305 305 304 303 302 301 300 298 296 293 289 286 282 279 276 274 272 271 270 269 269 269 269 270 270 271 271 271 271
294 296 296 294 293 292 292 293 294 295 295 296 297 298 298 299 300 301 303 304 305 306 306 307 308 308 308 308 308 309 309 309 309 309 309 308 308 308 307 307 306 305 305 304 303 301 300 299 297 294 292 290 287 284 281 279 276 273 271 270 269 268 268 268 268 269 270 270 270
294 294 293 292 293 293 294 295 296 296 297 298 299 299 300 301 303 304 305 306 307 308 308 309 309 309 309 309 310 310 310 310 310 310 309 309 308 308 308 307 306 305 305 304 303 302 300 299 297 295 293 291 289 287 285 283 281 278 275 273 271 269 268 267 267 267 267 268 269
294 293 293 294 295 295 296 297 297 298 299 300 301 302 303 305 306 307 308 308 309 309 310 310 310 310 310 310 311 311 311 311 311 310 309 309 309 308 308 307 306 306 305 304 303 302 300 299 297 295 293 292 290 289 287 286 284 282 279 277 275 273 271 269 268 267 266 266 267
295 296 297 297 297 298 298 299 299 300 301 302 304 305 306 307 308 309 310 310 310 310 310 311 311 311 311 311 311 311 311 311 311 310 309 309 309 308 307 307 306 305 304 303 302 301 300 298 296 294 293 291 290 288 287 286 284 282 280 279 277 276 274 271 270 268 267 266 266
299 299 300 300 300 300 301 301 302 303 304 305 306 307 309 309 310 311 311 311 311 311 311 311 311 312 312 312 311 311 311 311 310 310 309 308 308 307 306 305 305 304 303 301 300 299 297 296 294 293 292 291 290 289 288 286 284 282 280 279 277 276 275 273 272 270 268 267 267
303 303 303 302 302 303 303 304 305 306 307 308 308 309 310 310 311 311 311 311 312 312 312 312 312 312 312 312 311 311 311 310 309 308 308 307 306 305 304 303 303 302 301 300 298 296 294 292 291 291 291 291 290 289 288 287 285 282 280 279 278 276 275 274 272 270 268 267 267
305 305 304 304 304 305 306 307 307 308 308 309 310 310 311 311 312 312 312 312 313 313 312 312 312 312 312 311 311 310 309 309 308 307 306 305 305 304 303 302 301 300 300 299 297 295 293 291 290 289 289 288 287 286 285 285 284 282 280 279 278 276 275 274 273 271 269 267 266
306 305 305 306 306 307 308 308 308 308 309 309 310 311 312 312 313 313 314 314 313 313 313 312 312 312 311 311 310 309 308 308 307 306 305 305 304 303 302 302 301 300 299 298 297 295 293 292 290 289 287 286 285 283 282 281 280 279 277 277 276 275 274 274 274 272 270 268 266
305 305 306 306 307 307 308 308 308 309 309 310 311 312 314 314 314 315 315 314 314 313 312 312 311 311 311 310 309 309 308 308 307 306 306 305 304 303 302 302 301 300 299 298 296 295 293 292 290 289 287 285 284 283 281 279 277 275 274 273 272 272 272 273 273 272 270 268 266
305 306 306 307 307 307 307 308 309 310 311 313 314 315 315 316 316 316 315 314 314 313 312 312 311 311 310 310 310 309 309 308 308 307 306 305 305 304 303 302 301 300 299 298 297 295 294 292 290 288 286 285 283 282 281 279 276 274 272 271 271 270 270 270 270 268 267 265 264
306 306 306 307 307 307 309 310 311 313 314 315 316 317 317 317 316 316 315 314 313 313 312 312 311 311 310 310 310 310 309 309 308 308 307 306 305 304 304 303 302 301 300 298 297 296 294 292 290 288 286 284 282 281 280 278 276 274 272 270 269 268 268 268 266 265 263 262 261
306 306 307 307 308 310 311 313 314 315 316 317 317 317 317 317 316 316 315 314 314 313 312 312 312 311 311 311 311 310 310 310 309 308 307 307 306 305 304 303 302 301 300 299 297 296 294 292 290 288 286 284 282 280 279 277 275 273 271 269 268 267 266 265 264 263 262 261 260
307 308 309 310 311 313 314 315 316 317 318 318 318 318 317 317 316 315 315 314 314 314 313 313 312 312 312 311 311 311 311 310 310 309 308 307 306 306 305 304 303 302 300 299 297 295 293 292 290 287 285 283 281 279 278 276 274 273 271 269 267 266 265 264 263 262 261 260 259
309 310 311 313 314 315 316 317 318 318 319 319 318 318 317 317 316 315 315 315 315 314 314 314 313 313 312 312 312 312 311 311 310 309 308 308 307 306 305 305 303 302 300 298 296 294 293 291 289 287 285 282 280 278 276 275 273 272 270 269 267 266 265 263 262 261 260 259 258
312 313 314 315 316 317 318 319 319 319 319 319 318 318 317 317 316 316 315 315 315 315 315 314 314 313 313 313 312 312 312 311 310 310 309 308 308 307 306 305 303 301 299 297 295 293 291 289 287 286 284 281 279 278 276 274 273 271 270 269 267 266 264 263 262 260 259 258 257
315 316 316 317 318 318 319 319 320 320 320 319 319 318 318 317 317 316 316 316 316 315 315 315 315 314 314 314 313 313 312 311 311 310 310 309 308 308 306 305 303 301 298 296 294 292 290 288 287 286 284 282 280 278 277 275 274 272 271 270 268 267 265 264 262 260 259 257 256
316 317 317 318 319 319 320 320 320 320 320 320 319 319 318 317 317 317 316 316 316 316 316 316 315 315 315 314 314 313 312 312 311 311 310 310 309 308 306 304 302 300 298 296 294 293 292 290 289 287 286 284 283 281 280 278 277 275 274 273 271 270 268 266 264 261 259 257 256
317 318 318 319 320 320 321 321 321 321 321 320 320 319 318 318 317 317 317 316 316 316 316 316 316 316 315 315 314 314 313 312 312 312 311 310 309 308 306 304 302 300 298 296 294 293 292 291 290 288 287 285 284 282 281 280 278 277 276 274 273 272 271 270 268 265 263 260 257
318 319 319 320 321 321 322 322 322 322 321 321 320 319 319 318 318 318 317 317 317 317 317 317 316 316 315 315 314 314 314 314 313 313 312 311 309 308 306 303 301 299 297 294 293 292 291 289 288 287 286 284 283 281 280 279 277 276 274 274 273 272 271 270 269 268 266 264 261
319 320 320 321 322 322 323 323 322 322 321 321 320 319 319 319 318 318 318 318 318 318 317 317 317 316 315 315 315 315 315 315 314 313 312 311 309 307 305 302 300 298 296 295 293 293 291 290 288 287 285 284 282 281 279 277 276 275 274 273 272 271 270 269 268 267 266 265 264
320 321 322 322 323 323 323 323 323 322 321 320 320 320 319 319 319 319 319 319 319 318 318 317 317 316 316 316 316 316 316 316 314 313 311 309 308 306 304 302 300 299 298 297 297 297 296 295 293 290 288 286 284 282 280 279 278 276 275 273 272 271 270 268 267 266 264 263 262
322 322 323 323 324 324 323 323 322 322 321 321 320 320 320 320 320 320 320 319 319 319 318 318 317 317 317 317 317 317 316 315 314 312 310 308 307 306 305 304 302 302 302 302 302 302 301 299 297 294 292 289 286 283 281 280 279 277 276 274 273 271 269 268 267 266 265 263 261
323 323 323 324 324 324 323 323 322 322 321 321 321 321 321 321 321 320 320 320 319 319 318 318 318 318 318 317 317 316 315 315 313 312 310 309 308 307 306 305 305 306 306 306 306 305 303 301 299 296 293 290 287 284 282 280 279 277 276 275 273 271 270 268 267 266 265 264 262
323 324 324 324 324 324 323 323 322 322 322 322 322 322 322 321 321 321 320 320 320 319 319 318 318 318 317 317 316 316 316 315 313 312 311 310 309 308 308 308 308 308 308 308 307 305 303 302 300 298 295 292 289 286 283 281 279 277 276 274 273 271 269 268 267 266 265 264 263
324 324 324 324 324 323 323 323 322 322 322 322 322 322 322 322 322 321 321 320 320 319 318 318 318 317 317 317 317 316 316 315 313 312 311 310 309 309 310 310 310 310 309 308 307 306 304 302 301 299 297 295 292 288 285 282 280 277 275 274 272 270 269 268 266 266 264 263 263
324 324 324 324 324 323 323 323 323 323 323 323 323 323 323 322 322 321 321 320 319 319 318 318 318 318 318 318 318 316 315 314 313 312 311 311 310 311 312 312 312 311 310 309 308 306 305 304 302 301 299 297 294 291 287 284 281 278 275 274 272 271 269 268 266 265 264 263 262
324 324 324 324 324 324 323 323 323 323 323 323 323 323 323 322 322 321 320 320 319 319 318 318 318 319 319 319 317 316 315 314 313 313 313 313 313 312 313 312 312 311 310 310 309 308 307 305 304 302 301 299 297 294 290 287 283 280 277 275 273 272 270 268 267 265 264 262 261
325 325 325 325 324 324 324 324 324 324 324 323 323 323 323 322 321 321 320 320 319 319 319 319 319 319 318 318 317 316 315 314 314 315 315 315 315 314 313 313 312 312 312 311 311 310 309 307 306 304 303 301 299 296 293 289 286 283 280 277 275 274 272 270 269 267 265 263 261
325 325 325 325 325 324 324 324 324 324 324 323 323 323 322 322 321 321 320 320 320 320 320 320 320 319 318 317 316 316 315 316 316 317 317 317 317 316 315 314 313 313 314 314 313 312 311 309 308 306 304 303 301 298 295 292 288 285 282 280 278 277 275 273 271 269 267 265 262
326 326 326 325 325 325 325 325 324 324 324 323 323 323 322 322 321 321 321 321 321 320 320 321 320 319 318 318 317 316 316 317 317 318 318 319 318 317 316 315 315 315 316 316 316 315 313 312 310 308 306 304 302 299 296 294 291 288 286 284 282 280 278 276 274 271 269 267 264
327 326 326 326 325 325 325 325 325 324 324 323 323 322 322 322 321 321 322 322 322 321 320 320 319 319 318 317 317 317 317 318 318 319 319 319 319 318 317 317 317 317 319 320 319 319 317 315 313 311 309 306 303 300 297 295 292 290 288 286 284 283 281 278 276 274 272 268 264
327 327 326 326 326 326 326 325 325 324 323 323 323 323 322 322 322 322 323 323 322 321 320 319 319 318 318 318 318 318 318 319 319 319 319 320 320 319 319 319 319 320 322 324 324 322 321 319 318 316 312 308 304 300 298 295 292 290 288 287 285 284 282 280 278 276 274 270 266
327 327 327 327 327 327 326 325 325 324 323 323 323 323 323 323 323 323 323 323 322 320 319 319 319 319 320 320 319 319 319 320 320 320 320 320 321 321 321 321 321 323 326 328 328 327 326 325 323 321 316 311 305 302 298 296 293 291 289 287 285 284 283 282 279 277 275 273 270
327 327 328 328 327 327 326 325 324 324 323 323 323 323 323 323 324 324 324 323 321 320 319 319 320 320 321 321 320 320 320 321 321 320 321 321 323 323 323 323 324 327 330 332 331 330 330 330 329 326 321 315 309 304 300 297 294 292 290 288 286 285 284 282 280 277 275 274 271
328 328 328 328 328 327 326 325 324 324 323 323 324 324 324 324 324 324 324 323 322 321 320 320 320 321 322 322 321 321 321 321 321 322 323 324 325 326 326 327 328 330 333 336 335 335 334 333 331 328 324 318 312 306 302 298 295 292 291 289 287 285 284 282 280 277 275 274 271
329 329 329 329 328 327 325 324 324 323 324 324 324 324 325 325 325 324 324 323 322 322 322 321 322 322 323 323 322 321 321 321 322 323 325 326 328 329 330 331 332 334 336 337 338 337 336 335 332 329 325 319 312 307 302 298 295 293 292 291 289 287 284 282 280 278 275 273 271
Height
1492 1492 1491 1491 1491 1490 1490 1489 1489 1489 1488 1488 1488 1487 1486 1486 1485 1484 1484 1483 1482 1481 1481 1480 1479 1478 1478 1477 1477 1476 1475 1474 1473 1473 1472 1471 1470 1469 1468 1467 1466 1466 1465 1464 1463 1463 1462 1462 1461 1460 1458 1458 1457 1456 1456 1455 1455 1454 1454 1453 1452 1452 1451 1450 1450 1449 1449 1448 1448
1491 1490 1490 1489 1489 1489 1488 1488 1488 1487 1487 1486 1486 1485 1485 1484 1483 1483 1482 1481 1480 1479 1478 1478 1477 1476 1475 1474 1474 1473 1472 1471 1470 1469 1468 1467 1466 1465 1464 1463 1463 1462 1461 1460 1460 1459 1459 1458 1457 1456 1455 1454 1453 1453 1452 1452 1452 1451 1451 1450 1449 1449 1448 1447 1446 1446 1446 1445 1445
1489 1489 1488 1488 1488 1487 1487 1487 1486 1486 1485 1485 1484 1483 1483 1482 1481 1480 1480 1479 1478 1477 1476 1475 1474 1473 1473 1472 1471 1470 1469 1468 1467 1466 1464 1463 1462 1461 1460 1459 1458 1458 1457 1456 1456 1455 1455 1454 1453 1453 1451 1450 1450 1449 1448 1448 1448 1448 1447 1446 1446 1446 1445 1444 1443 1443 1443 1442 1442
1488 1487 1487 1487 1486 1486 1486 1485 1485 1484 1483 1483 1482 1482 1481 1480 1479 1478 1478 1477 1476 1475 1474 1473 1472 1471 1470 1468 1468 1466 1465 1464 1463 1462 1460 1459 1458 1457 1456 1455 1454 1453 1453 1452 1452 1451 1450 1450 1449 1448 1447 1447 1446 1445 1445 1444 1444 1444 1443 1443 1443 1442 1441 1440 1440 1440 1439 1438 1438
1486 1486 1485 1485 1485 1484 1484 1483 1483 1482 1482 1481 1481 1480 1479 1478 1477 1476 1475 1474 1473 1472 1471 1470 1468 1467 1466 1465 1464 1463 1461 1460 1459 1458 1456 1455 1454 1453 1452 1451 1450 1450 1449 1448 1448 1447 1446 1446 1445 1444 1443 1443 1442 1441 1441 1441 1441 1440 1439 1439 1439 1438 1438 1437 1437 1436 1436 1435 1435
1485 1484 1484 1484 1483 1483 1482 1482 1481 1480 1480 1479 1478 1478 1477 1476 1475 1474 1473 1472 1470 1469 1468 1467 1465 1464 1463 1462 1460 1459 1458 1456 1455 1454 1453 1451 1450 1449 1448 1447 1446 1446 1445 1444 1443 1443 1442 1442 1441 1440 1439 1438 1438 1437 1437 1437 1437 1436 1435 1435 1434 1434 1434 1433 1433 1433 1433 1432 1431
1483 1483 1483 1482 1482 1481 1480 1480 1479 1478 1478 1477 1476 1475 1474 1473 1472 1471 1470 1468 1467 1466 1465 1463 1462 1461 1459 1458 1456 1455 1453 1452 1451 1450 1449 1448 1446 1445 1444 1443 1443 1442 1441 1440 1439 1439 1438 1438 1437 1435 1434 1434 1433 1433 1433 1433 1433 1432 1431 1431 1430 1430 1430 1429 1429 1429 1428 1428 1428
1482 1482 1481 1480 1480 1479 1478 1478 1477 1476 1476 1475 1474 1473 1472 1471 1469 1468 1467 1465 1464 1463 1461 1460 1458 1457 1456 1454 1453 1451 1450 1449 1448 1446 1445 1444 1443 1442 1440 1440 1438 1438 1437 1436 1435 1435 1434 1433 1433 1432 1431 1430 1429 1428 1428 1428 1428 1428 1427 1427 1426 1426 1426 1425 1425 1425 1424 1424 1424
1480 1480 1479 1478 1478 1477 1476 1476 1475 1474 1473 1472 1471 1470 1469 1468 1466 1465 1463 1462 1461 1459 1458 1457 1455 1454 1452 1451 1449 1448 1447 1445 1444 1443 1442 1440 1439 1438 1437 1436 1435 1434 1433 1432 1432 1431 1430 1429 1428 1427 1427 1426 1425 1424 1424 1424 1424 1423 1423 1422 1422 1422 1421 1421 1421 1421 1420 1420 1420
1478 1478 1477 1477 1476 1475 1474 1473 1473 1472 1470 1469 1468 1467 1466 1464 1463 1462 1460 1459 1458 1456 1455 1453 1452 1450 1449 1447 1446 1444 1443 1442 1441 1439 1438 1437 1436 1435 1434 1433 1432 1431 1430 1429 1428 1428 1426 1425 1424 1423 1422 1422 1421 1420 1420 1420 1420 1419 1418 1418 1418 1417 1417 1417 1417 1417 1416 1416 1415
1477 1476 1475 1475 1474 1473 1472 1471 1470 1469 1468 1466 1465 1464 1463 1462 1460 1459 1458 1456 1454 1453 1451 1450 1449 1447 1446 1444 1443 1442 1440 1439 1438 1436 1435 1434 1433 1432 1431 1430 1429 1428 1427 1426 1425 1424 1423 1422 1420 1419 1418 1418 1417 1416 1416 1415 1415 1415 1414 1414 1413 1413 1413 1412 1413 1413 1412 1412 1411
1475 1474 1473 1473 1472 1471 1470 1468 1467 1466 1465 1464 1463 1461 1460 1459 1458 1456 1454 1453 1451 1450 1448 1447 1446 1444 1443 1441 1440 1439 1438 1436 1435 1434 1432 1431 1430 1429 1428 1426 1425 1424 1423 1422 1421 1420 1419 1418 1417 1416 1415 1414 1413 1413 1412 1411 1411 1410 1410 1409 1409 1408 1408 1408 1408 1408 1408 1408 1408
1473 1472 1471 1470 1469 1468 1467 1466 1465 1464 1463 1461 1460 1459 1458 1456 1455 1453 1452 1450 1448 1447 1446 1444 1443 1442 1440 1438 1437 1436 1435 1433 1432 1430 1429 1428 1426 1425 1424 1423 1422 1420 1419 1418 1417 1416 1415 1414 1413 1412 1411 1410 1409 1409 1408 1408 1407 1406 1405 1405 1404 1404 1403 1403 1403 1403 1403 1403 1403
1471 1470 1469 1468 1467 1466 1465 1464 1463 1461 1460 1459 1458 1456 1455 1453 1452 1450 1449 1447 1446 1444 1443 1441 1440 1439 1438 1436 1434 1433 1432 1430 1428 1427 1425 1424 1423 1421 1420 1418 1418 1416 1415 1414 1413 1412 1411 1410 1409 1408 1407 1406 1405 1404 1404 1404 1403 1402 1402 1401 1400 1399 1399 1398 1398 1398 1399 1399 1399
1469 1468 1467 1466 1465 1464 1463 1462 1460 1459 1458 1456 1455 1453 1452 1450 1449 1448 1446 1444 1443 1442 1440 1438 1437 1436 1434 1433 1432 1430 1428 1427 1425 1423 1422 1420 1419 1418 1416 1415 1413 1412 1411 1410 1409 1408 1407 1406 1404 1403 1403 1402 1401 1400 1399 1399 1398 1398 1398 1397 1396 1395 1395 1394 1394 1394 1394 1394 1394
1467 1466 1465 1464 1463 1462 1461 1459 1458 1457 1455 1453 1452 1451 1449 1448 1446 1445 1443 1442 1440 1438 1437 1436 1434 1433 1431 1430 1428 1427 1425 1423 1421 1420 1418 1416 1415 1413 1412 1411 1409 1408 1407 1406 1404 1403 1402 1401 1400 1399 1398 1398 1396 1396 1395 1394 1394 1393 1393 1392 1392 1391 1391 1390 1390 1390 1390 1390 1390
1465 1464 1463 1462 1461 1460 1458 1457 1456 1454 1453 1451 1449 1448 1447 1445 1443 1442 1440 1439 1437 1436 1434 1433 1431 1430 1428 1426 1425 1423 1422 1419 1418 1416 1414 1413 1411 1410 1408 1407 1405 1404 1403 1402 1400 1399 1398 1397 1396 1395 1394 1393 1392 1391 1390 1390 1389 1389 1388 1388 1387 1387 1386 1386 1386 1386 1386 1386 1386
1463 1462 1461 1460 1458 1457 1456 1454 1453 1451 1450 1448 1447 1445 1444 1442 1441 1439 1438 1436 1435 1433 1431 1429 1428 1427 1425 1423 1422 1420 1418 1416 1414 1413 1411 1409 1408 1406 1404 1403 1402 1400 1399 1398 1396 1395 1393 1393 1392 1391 1390 1389 1388 1387 1386 1385 1384 1384 1383 1383 1382 1382 1382 1382 1382 1382 1382 1382 1382
1461 1460 1459 1457 1456 1454 1453 1452 1450 1448 1447 1446 1444 1443 1441 1439 1438 1436 1435 1433 1432 1430 1428 1426 1425 1423 1422 1420 1418 1416 1415 1413 1411 1409 1407 1406 1404 1402 1401 1399 1398 1396 1395 1393 1392 1391 1389 1388 1388 1387 1386 1385 1383 1383 1382 1381 1380 1379 1378 1378 1378 1377 1377 1377 1377 1377 1378 1378 1377
1459 1458 1456 1455 1453 1452 1451 1449 1448 1446 1444 1443 1441 1440 1438 1437 1435 1433 1432 1430 1429 1427 1425 1423 1422 1420 1418 1417 1415 1413 1411 1409 1407 1405 1403 1402 1400 1398 1397 1395 1393 1392 1391 1389 1388 1387 1385 1384 1383 1382 1381 1380 1379 1378 1377 1377 1376 1375 1374 1373 1373 1372 1372 1372 1372 1372 1373 1373 1373
1456 1455 1454 1452 1451 1450 1448 1447 1445 1443 1442 1440 1438 1437 1435 1434 1432 1431 1429 1428 1426 1424 1423 1420 1418 1417 1415 1413 1411 1409 1407 1406 1404 1402 1400 1398 1396 1395 1393 1392 1390 1388 1387 1385 1384 1383 1381 1380 1379 1378 1377 1376 1375 1374 1373 1372 1371 1370 1369 1368 1368 1367 1367 1367 1367 1368 1368 1368 1368
1454 1453 1451 1450 1449 1447 1446 1444 1443 1441 1439 1438 1436 1434 1433 1431 1430 1428 1427 1425 1423 1421 1419 1418 1415 1413 1411 1409 1408 1406 1404 1402 1400 1398 1396 1394 1393 1391 1389 1388 1386 1384 1382 1381 1379 1378 1377 1376 1374 1373 1373 1371 1370 1369 1368 1367 1366 1365 1364 1364 1363 1363 1362 1362 1363 1363 1363 1363 1363
1452 1451 1449 1448 1446 1445 1443 1442 1440 1438 1437 1435 1433 1432 1430 1428 1427 1425 1424 1422 1420 1418 1416 1414 1413 1410 1408 1406 1404 1402 1400 1398 1396 1394 1393 1391 1389 1387 1385 1383 1382 1380 1378 1377 1375 1374 1373 1372 1370 1369 1368 1368 1366 1365 1364 1364 1363 1362 1361 1360 1359 1358 1358 1358 1358 1358 1358 1358 1358
1450 1448 1447 1446 1444 1443 1441 1439 1438 1436 1434 1433 1431 1429 1427 1426 1424 1422 1421 1419 1417 1415 1413 1411 1409 1407 1405 1403 1401 1399 1397 1394 1392 1390 1388 1387 1385 1383 1381 1380 1378 1376 1374 1373 1372 1371 1370 1368 1367 1366 1365 1364 1363 1362 1361 1361 1360 1359 1358 1357 1356 1355 1354 1354 1354 1353 1353 1353 1353
1448 1446 1445 1443 1442 1440 1438 1437 1435 1433 1432 1430 1428 1427 1425 1423 1421 1419 1418 1416 1414 1412 1410 1408 1406 1404 1402 1399 1397 1395 1393 1391 1389 1387 1384 1383 1381 1380 1378 1376 1374 1372 1371 1369 1368 1367 1366 1365 1364 1363 1362 1361 1360 1359 1358 1358 1357 1356 1355 1354 1353 1352 1351 1351 1350 1350 1350 1349 1349
1445 1444 1443 1441 1439 1438 1436 1435 1433 1431 1430 1428 1426 1424 1422 1420 1418 1417 1415 1413 1411 1409 1407 1405 1403 1400 1398 1396 1394 1392 1390 1388 1386 1383 1381 1379 1377 1376 1374 1373 1371 1369 1367 1366 1364 1363 1363 1362 1361 1360 1359 1358 1357 1356 1355 1354 1353 1353 1352 1351 1350 1349 1348 1347 1347 1346 1346 1346 1346
1443 1442 1440 1439 1437 1436 1434 1433 1431 1429 1427 1425 1423 1422 1420 1418 1416 1414 1412 1410 1408 1406 1404 1402 1399 1397 1395 1393 1391 1388 1387 1385 1383 1380 1378 1376 1373 1372 1370 1369 1367 1365 1363 1362 1361 1360 1359 1358 1358 1357 1357 1355 1354 1353 1352 1351 1350 1349 1348 1348 1347 1346 1345 1344 1343 1343 1343 1343 1343
1441 1439 1438 1436 1435 1433 1432 1430 1428 1427 1425 1423 1421 1419 1417 1415 1413 1411 1409 1407 1405 1403 1401 1398 1396 1394 1392 1390 1388 1386 1384 1382 1379 1377 1375 1372 1370 1368 1367 1365 1363 1362 1361 1359 1358 1357 1356 1355 1354 1354 1353 1353 1351 1350 1349 1348 1347 1346 1345 1344 1343 1342 1341 1340 1339 1339 1338 1338 1338
1439 1437 1436 1434 1433 1431 1430 1428 1426 1424 1422 1420 1418 1417 1414 1413 1411 1409 1407 1404 1402 1400 1398 1396 1393 1392 1389 1387 1385 1383 1380 1378 1376 1374 1371 1369 1367 1365 1364 1362 1361 1359 1358 1357 1355 1354 1353 1352 1351 1350 1350 1349 1348 1347 1346 1345 1343 1343 1341 1340 1339 1338 1337 1337 1336 1335 1335 1335 1334
1437 1435 1433 1432 1430 1429 1427 1426 1424 1422 1420 1418 1416 1414 1412 1410 1408 1406 1404 1402 1399 1398 1395 1393 1391 1389 1387 1384 1382 1379 1377 1375 1373 1371 1368 1366 1364 1363 1361 1359 1358 1356 1355 1353 1352 1351 1350 1349 1348 1347 1346 1345 1345 1344 1343 1341 1340 1339 1338 1337 1335 1334 1334 1333 1332 1332 1331 1331 1331
1435 1433 1432 1430 1428 1427 1425 1423 1421 1419 1417 1415 1413 1411 1409 1408 1406 1403 1402 1399 1397 1395 1393 1391 1388 1386 1383 1381 1379 1377 1374 1372 1370 1368 1366 1364 1362 1360 1358 1357 1355 1353 1352 1351 1349 1348 1347 1346 1344 1343 1342 1342 1341 1340 1339 1338 1337 1335 1334 1333 1331 1330 1330 1329 1328 1328 1328 1327 1327
1433 1431 1429 1428 1426 1424 1423 1421 1419 1417 1415 1413 1411 1409 1407 1405 1403 1401 1399 1397 1394 1392 1390 1388 1385 1383 1380 1378 1376 1374 1372 1369 1367 1365 1363 1362 1359 1358 1356 1354 1352 1351 1349 1348 1346 1345 1344 1343 1341 1340 1339 1338 1337 1336 1335 1334 1333 1331 1330 1328 1327 1326 1326 1325 1324 1324 1323 1323 1323
1431 1429 1427 1426 1424 1422 1420 1418 1416 1414 1412 1410 1408 1407 1405 1403 1401 1399 1397 1394 1392 1389 1387 1384 1382 1380 1378 1375 1373 1371 1368 1366 1364 1363 1361 1359 1357 1355 1353 1351 1349 1348 1346 1345 1343 1342 1341 1339 1338 1337 1336 1334 1333 1332 1331 1330 1328 1327 1326 1324 1323 1322 1321 1321 1320 1319 1319 1319 1319
1429 1427 1425 1423 1422 1420 1418 1416 1414 1412 1410 1408 1406 1404 1403 1400 1398 1396 1394 1392 1389 1387 1384 1382 1379 1377 1375 1373 1370 1368 1365 1363 1361 1360 1358 1357 1355 1353 1351 1349 1347 1345 1343 1342 1341 1339 1338 1337 1335 1334 1333 1331 1330 1329 1327 1326 1324 1323 1321 1320 1318 1318 1317 1316 1315 1315 1314 1314 1314
1427 1425 1423 1421 1419 1418 1415 1413 1412 1409 1408 1406 1404 1402 1400 1398 1396 1393 1391 1388 1386 1384 1381 1379 1377 1375 1372 1370 1368 1365 1363 1361 1359 1357 1356 1354 1352 1350 1348 1346 1344 1343 1341 1340 1338 1337 1335 1334 1332 1331 1329 1328 1327 1325 1323 1322 1320 1318 1317 1316 1314 1313 1313 1312 1311 1310 1310 1310 1309
1424 1423 1421 1419 1417 1415 1413 1411 1409 1407 1405 1403 1401 1399 1398 1396 1393 1391 1388 1386 1383 1381 1378 1376 1374 1372 1369 1367 1365 1363 1361 1358 1357 1355 1353 1352 1350 1348 1346 1343 1342 1340 1338 1337 1335 1334 1333 1331 1329 1328 1327 1325 1323 1322 1320 1318 1317 1315 1313 1312 1310 1309 1308 1308 1307 1306 1305 1305 1305
1423 1421 1418 1417 1415 1413 1411 1409 1407 1405 1403 1401 1399 1397 1395 1393 1390 1388 1386 1383 1381 1378 1376 1373 1371 1369 1367 1365 1362 1360 1358 1357 1355 1353 1351 1349 1348 1346 1343 1341 1339 1337 1336 1334 1333 1331 1330 1328 1327 1325 1324 1322 1320 1318 1317 1315 1313 1311 1309 1308 1306 1304 1303 1303 1302 1301 1300 1300 1300
1421 1419 1417 1415 1413 1411 1409 1407 1405 1403 1401 1399 1397 1395 1393 1390 1388 1386 1383 1381 1379 1376 1373 1371 1368 1366 1364 1362 1360 1358 1356 1354 1353 1351 1348 1347 1345 1344 1342 1339 1337 1335 1333 1332 1330 1329 1327 1325 1324 1322 1321 1319 1317 1315 1313 1312 1309 1307 1305 1303 1302 1300 1299 1298 1297 1296 1295 1294 1294
1419 1417 1415 1413 1411 1409 1407 1405 1403 1401 1399 1397 1395 1393 1390 1388 1386 1383 1381 1379 1377 1374 1371 1368 1366 1364 1362 1360 1358 1355 1353 1352 1350 1349 1347 1345 1343 1341 1339 1337 1334 1332 1331 1329 1328 1326 1324 1322 1321 1319 1318 1316 1314 1312 1310 1308 1306 1303 1302 1300 1298 1296 1294 1293 1292 1291 1289 1288 1288
1417 1415 1413 1411 1409 1407 1405 1403 1401 1399 1397 1395 1393 1390 1388 1386 1383 1381 1379 1377 1374 1372 1369 1366 1364 1362 1360 1358 1356 1353 1351 1349 1348 1347 1345 1343 1341 1339 1337 1335 1332 1330 1328 1327 1325 1323 1321 1319 1318 1316 1314 1313 1311 1309 1308 1305 1303 1301 1298 1297 1295 1293 1290 1288 1287 1286 1284 1283 1283
1415 1413 1411 1409 1407 1405 1403 1401 1399 1398 1395 1393 1391 1388 1386 1383 1381 1379 1377 1374 1372 1369 1367 1364 1362 1360 1358 1356 1354 1351 1349 1347 1345 1344 1343 1341 1338 1337 1335 1333 1330 1328 1326 1324 1322 1320 1318 1316 1315 1313 1312 1310 1309 1307 1305 1303 1301 1298 1296 1294 1292 1289 1287 1285 1283 1281 1280 1279 1278